www.pogodaiklimat.ru

Погода и климат >> Архив погоды >> Бангладеш >> Madaripur


ПОГОДА в Madaripur

  • Прогноз погоды в Madaripur
  • Монитор погоды в Madaripur
  • Климат города

АРХИВ ПОГОДЫ в Madaripur

Время (UTC), дата Ветер
(напр.,м/с)
 
Видим.   Явления Облачность Т
(С)
Тd
(С)
f
(%)
Тe
(С)
Тes
(С)
Комфортность P
(гПа)
Po
(гПа)
Тmin
(С)
Tmax
(С)
R
(мм)
R24
(мм)
S
(см)
06 12.10 штиль 0 6000 м {дождь} 10/4 500 м
[Sc As op]
+28.0 +23.0 74 +37 +40 очень
душно
1013.2 1012.4 11
09 12.10 штиль 0 8000 м 10/4 500 м
[Sc As op]
+27.5 +24.0 81 +38 +39 очень
душно
1012.0 1011.2
12 12.10 штиль 0 7000 м 10/4 500 м
[Sc As op]
+25.8 +25.0 95 +37 +37 очень
душно
1011.0 1010.2 +28.0
00 13.10 штиль 0 5000 м слабый дождь 10/4 480 м
[Sc As op]
+24.0 +24.0 100 +33 +33 очень
душно
1011.4 1010.6 6
03 13.10 штиль 0 5000 м слабый дождь 10/4 480 м
[Sc As op]
+24.0 +24.0 100 +33 +34 очень
душно
1011.4 1010.6 6
15 13.10 штиль 0 5000 м {дождь} 10/4 500 м
[Sc As op]
+24.6 +24.0 96 +34 +34 очень
душно
1010.2 1009.4 5
00 14.10 штиль 0 5000 м мгла 5/3 500 м
[Sc Ac trans]
+23.4 +22.0 92 +32 +32 очень
душно
1009.9 1009.1
09 14.10 штиль 0 7000 м 5/4 500 м
[Sc diur, vesp Ac trans]
+29.5 +24.0 72 +41 +46 опасность
перегрева
1010.3 1009.5
12 14.10 штиль 0 5000 м 5/4 500 м
[Sc diur, vesp Ac trans]
+27.0 +24.0 84 +37 +37 очень
душно
1010.5 1009.7 +30.4
15 14.10 штиль 0 4000 м ясно +25.3 +22.0 82 +33 +33 очень
душно
1012.4 1011.6
18 14.10 штиль 0 4000 м ясно +23.3 +22.0 92 +32 +32 очень
душно
1012.4 1011.6
21 14.10 штиль 0 3000 м мгла ясно +23.0 +22.0 94 +31 +31 очень
душно
1012.9 1012.1
00 15.10 штиль 0 5000 м мгла ясно +22.7 +22.7 100 +31 +31 очень
душно
1013.7 1012.8
03 15.10 штиль 0 6000 м мгла ясно +26.0 +24.0 89 +36 +46 очень
душно
1015.2 1014.4 +22.0
06 15.10 штиль 0 8000 м 5/4 500 м
[Sc diur, vesp Ac trans]
+31.7 +23.0 60 +42 +53 опасность
перегрева
1014.1 1013.2
09 15.10 штиль 0 9000 м 3/3 540 м
[Sc diur, vesp]
+32.1 +23.0 59 +42 +49 опасность
перегрева
1011.8 1011.0
12 15.10 штиль 0 5000 м ясно +26.5 +25.0 91 +38 +38 очень
душно
1012.0 1011.2 +32.5
15 15.10 штиль 0 4000 м ясно +25.0 +24.0 94 +34 +34 очень
душно
1013.0 1012.2
18 15.10 штиль 0 3000 м мгла ясно +24.0 +23.0 94 +32 +32 очень
душно
1014.0 1013.2
21 15.10 штиль 0 3000 м мгла ясно +23.5 +23.0 97 +31 +31 очень
душно
1013.6 1012.8
00 16.10 штиль 0 5000 м мгла ясно +23.0 +22.0 94 +31 +31 очень
душно
1013.2 1012.4
03 16.10 штиль 0 6000 м мгла ясно +27.0 +24.0 84 +37 +47 очень
душно
1014.6 1013.8 +22.3
06 16.10 8000 м н/о +30.9 +21.0 56 +38 +52 опасность
солнечного
удара
1013.0 1012.2
09 16.10 Ю 1 6000 м 4/4 540 м
[Sc diur, vesp]
+31.5 +19.0 47 +37 +42 очень
душно
1010.5 1013.1
12 16.10 штиль 0 5000 м ясно +28.0 +23.0 74 +37 +37 очень
душно
1011.0 1010.2 +32.5
15 16.10 штиль 0 5000 м ясно +24.2 +23.0 93 +32 +32 очень
душно
1012.5 1011.7
18 16.10 штиль 0 5000 м мгла ясно +22.7 +22.0 96 +31 +31 очень
душно
1013.7 1013.0
21 16.10 штиль 0 5000 м мгла ясно +22.0 +21.0 94 +28 +28 душно 1013.7 1012.8
00 17.10 штиль 0 5000 м мгла ясно +20.9 +20.0 95 +25 +25 комфорт 1013.7 1012.9
03 17.10 штиль 0 7000 м ясно +27.0 +21.0 70 +34 +44 очень
душно
1014.5 1013.7 +20.3
06 17.10 штиль 0 7000 м ясно +30.0 +20.0 55 +36 +57 опасность
солнечного
удара
1012.0 1011.2
09 17.10 штиль 0 9000 м ясно +32.0 +20.0 49 +38 +48 очень
душно
1009.8 1009.0
12 17.10 штиль 0 5000 м 6/4 540 м
[Sc Ac trans]
+28.0 +23.0 74 +37 +37 очень
душно
1009.2 1008.4 +32.5
15 17.10 штиль 0 4000 м ясно +24.3 +23.0 92 +32 +32 очень
душно
1011.2 1010.4
18 17.10 штиль 0 4000 м ясно +22.7 +22.0 96 +31 +31 очень
душно
1011.5 1010.7
21 17.10 штиль 0 4000 м мгла 4/4 540 м
[Sc]
+22.4 +21.0 92 +29 +29 очень
душно
1009.9 1009.0
00 18.10 штиль 0 5000 м мгла ясно +21.0 +20.0 94 +26 +26 душно 1011.6 1010.7
03 18.10 штиль 0 6000 м мгла ясно +24.5 +23.0 91 +32 +42 очень
душно
1013.2 1012.4 +20.5
06 18.10 7000 м н/о +31.0 +21.0 55 +38 +51 опасность
солнечного
удара
1012.5 1011.7
09 18.10 штиль 0 8000 м 3/3 540 м
[Sc]
+32.0 +22.0 56 +41 +47 опасность
перегрева
1009.5 1008.7
12 18.10 штиль 0 6000 м ясно +27.3 +24.0 82 +38 +38 очень
душно
1010.3 1009.5 +32.6

 

Местоположение метеостанции Madaripur (Бангладеш): широта 23.17 долгота 90.18 высота над уровнем моря 13 м.

В архиве по умолчанию представлена погода в Madaripur за последнюю неделю. Архивные данные за месяц целиком и за предыдущие месяцы, начиная с января 2011 года, Вы можете получить, выбрав интересующий диапазон дат из раскрывающегося списка и нажав кнопку "Ввод!".


*Определитесь, кто Вы:
робот инопланетянин человек

Внимание! Время в таблицах - всемирное. Для получения местного времени необходимо прибавить поправку, которая в Madaripur равна 6.5 ч.

Смотрите также архив погоды в соседних городах и на ближайших метеорологических станциях:

Погода в Gopalganj Sadar (Бангладеш) (41 км)
Погода в Barisal (Бангладеш) (51 км)
Погода в Chandpur (Бангладеш) (54 км)
Погода в Faridpur (Бангладеш) (59 км)
Погода в Dhaka (Бангладеш) (70 км)
Погода в Bhola (Бангладеш) (73 км)
Погода в Khulna (Бангладеш) (79 км)
Погода в Mongla (Бангладеш) (94 км)
Погода в Patuakhali (Бангладеш) (95 км)
Погода в Maijdicourt (Бангладеш) (100 км)

Пояснения к столбцам:

Ветер - указаны скорость ветра в м/с - средняя за 10 мин, порывы в срок и между сроками (в фигурных скобках) и направление, откуда дует ветер: С - северный, СВ - северо-восточный, В - восточный, ЮВ - юго-восточный, Ю - южный, ЮЗ - юго-западный, З - западный, СЗ - северо-западный.
Видимость - горизонтальная дальность видимости в метрах или километрах. При видимости от 1 до 10 км при отсутствии осадков обычно наблюдается дымка, при ухудшении видимости до 1 км и менее - туман. В сухую погоду видимость может ухудшаться дымом, пылью или мглою.
Явления - указаны атмосферные явления, наблюдавшиеся в срок или в последний час перед сроком; фигурными скобками обозначены явления, наблюдавшиеся между сроками (за 1-3 часа до срока); квадратными скобками обозначены град или гололедные отложения с указанием их диаметра в мм.
Облачность - указаны через наклонную черту общая и нижняя облачность в баллах и высота нижней границы облаков в метрах; квадратными скобками обозначены формы облаков: Ci - перистые, Cs - перисто-слоистые, Cc - перисто-кучевые, Ac - высококучевые, As - высокослоистые, Sc - слоисто-кучевые, Ns - слоисто-дождевые, Cu - кучевые, Cb - кучево-дождевые. Подробнее классификацию облаков см. в Атласе облаков (PDF).
T - Температура воздуха - температура, измеренная на высоте 2 м над землей.
Td - Температура точки росы - температура, при понижении до которой содержащийся в воздухе водяной пар достигнет насыщения.
f - Относительная влажность воздуха - влажноcть воздуха, измеренная на высоте 2 м над землей.
Te - Эффективная температура - температура, которую ощущает одетый по сезону человек в тени. Характеристика душности погоды. При расчете учитывается влияние влажности воздуха и скорости ветра на теплоощущения человека.
Tes - Эффективная температура на солнце - температура, которую ощущает человек, с поправкой на солнечный нагрев. Характеристика знойности погоды. Зависит от высоты солнца над горизонтом, облачности и скорости ветра. Ночью, в пасмурную погоду, а также при ветре 12 м/с и более поправка равна нулю.
P - Атмосферное давление - приведенное к уровню моря атмосферное давление.
Po - Атмосферное давление - измеренное на уровне метеостанции атмосферное давление.
Tmin - Минимальная температура - минимум температуры воздуха на высоте 2 м над землей.
Tmax - Максимальная температура - максимум температуры воздуха на высоте 2 м над землей.
R - Количество осадков - Количество выпавших осадков за период времени, мм. При наведении курсора мыши на число - период времени, за который выпало указанное количество осадков.
R24 - Количество осадков - Количество выпавших осадков за 24 часа, мм.
S - Снежный покров - Высота снежного покрова, см. При наведении курсора мыши на число - состояние снежного покрова и степень покрытия местности в баллах.